Skip Page Navigation
NASA JPL Caltech
NASA Logo - Jet Propulsion Laboratory + View the NASA Portal
+ Center for Near-Earth Object Studies
JPL Home Earth Solar System Stars & Galaxies Technology
JPL Solar System Dynamics
BODIES ORBITS EPHEMERIDES TOOLS PHYSICAL DATA DISCOVERY FAQ SITE MAP
JPL Small-Body Database Browser
Search: [ help ]  
175551 (2006 SW303)
Classification: Main-belt Asteroid          SPK-ID: 2175551
Ephemeris | Orbit Diagram | Orbital Elements | Mission Design | Physical Parameters | Discovery Circumstances | Close-Approach Data ]

[ show orbit diagram ]
Orbital Elements at Epoch 2459200.5 (2020-Dec-17.0) TDB
Reference: JPL 19 (heliocentric ecliptic J2000)
 Element Value Uncertainty (1-sigma)   Units 
e .03973199740667263 3.1437e-08  
a 2.66200043388074 1.5649e-08 au
q 2.556233839545229 8.2546e-08 au
i 2.862259504558158 4.8998e-06 deg
node 160.965616370867 6.9402e-05 deg
peri 259.4433887773853 9.5829e-05 deg
M 56.72115887893826 6.4664e-05 deg
tp 2458950.549963565725
(2020-Apr-11.04996357)
0.00028556 TDB
period 1586.392360360452
4.34
1.3989e-05
3.83e-08
d
yr
n .2269299884413227 2.001e-09 deg/d
Q 2.767767028216251 1.6271e-08 au
  Orbit Determination Parameters
   # obs. used (total)      396  
   data-arc span      10014 days (27.42 yr)  
   first obs. used      1993-10-11  
   last obs. used      2021-03-12  
   planetary ephem.      DE441  
   SB-pert. ephem.      SB441-N16  
   condition code      0  
   norm. resid. RMS      .52286  
   source      ORB  
   producer      Otto Matic  
   solution date      2021-Apr-13 21:05:51  

Additional Information
 Earth MOID = 1.56946 au 
 Jupiter MOID = 2.34874 au 
 T_jup = 3.382 
[ show covariance matrix ]

Ephemeris | Orbit Diagram | Orbital Elements | Mission Design | Physical Parameters | Discovery Circumstances | Close-Approach Data ]

Physical Parameter Table
Parameter Symbol Value Units Sigma Reference Notes
absolute magnitude H 16.4   n/a MPO502969  

175551 (2006 SW303)          Discovered 2006-Sep-27 by Mt. Lemmon Survey at Mount Lemmon
Reference: 20080122/Numbers.arcLast Updated: 2008-01-28

[ show close-approach data ]
Alternate Designations
 2006 SW303 = 1995 CP4 
Ephemeris | Orbit Diagram | Orbital Elements | Mission Design | Physical Parameters | Discovery Circumstances | Close-Approach Data ]
ABOUT SSD CREDITS/AWARDS PRIVACY/COPYRIGHT GLOSSARY LINKS
FirstGov 2021-Apr-15 00:08 UT
(server date/time)  
NASA Home Page
Site Manager:   Ryan S. Park
Webmaster  Alan B. Chamberlin